Terminal Aerodrome Forecast
Issued by NWS

Home | Current Version | Previous Version | Graphics & Text | Print | Product List | Glossary On
Versions: 1 2 3 4 5 6 7 8 9 10 11 12 13 14 15
000
FTUS43 KUNR 242300
TAFGCC
TAF
KGCC 242320Z 2500/2524 31016KT P6SM SCT030 BKN100
     FM250300 32007KT P6SM BKN060
     FM250900 VRB04KT 4SM BR BKN010
     FM251500 31009KT P6SM BKN035=

USA.gov is the U.S. government's official web portal to all federal, state and local government web resources and services.